Flag for Austria Weather past 2 weeks in Mürzzuschlag, Styria, Austria

Now
41 °F

Quite cool.


Feels Like: 41 °F
Forecast: 29 / 51 °F
Wind: 2 mph from Southwest

Location: Eisenstadt

Current Time: Oct 25, 2014 at 2:37:43 AM

Latest Report: Oct 25, 2014 at 1:00 AM


Visibility: N/A

Pressure: 30.22 "Hg

Humidity: 86%

Dew point: 37 °F

Location of MürzzuschlagLocation

Historic Weather in Mürzzuschlag — Graph

°F

Mürzzuschlag temperature yesterday

Maximum temperature yesterday: 51 °F (at 1:00 PM)
Minimum temperature yesterday: 42 °F (at 11:00 PM)
Average temperature yesterday: 48 °F

Past Weeks' High & Low Weather Summary

 TemperatureHumidityPressure
High72 °F (Oct 20, 1:00 PM)100% (Oct 11, 8:00 AM)30.32 "Hg (Oct 11, 8:00 AM)
Low41 °F (Oct 25, 1:00 AM)52% (Oct 14, 3:00 PM)29.61 "Hg (Oct 22, 1:00 AM)
Average57 °F84%29.93 "Hg
* Reported Oct 10 1:00 AM — Oct 25 1:00 AM, Mürzzuschlag, Weather by CustomWeather, © 2014

Note: Actual official high and low records may vary slightly from our data, if they occured in-between our weather recording intervals... More about our weather records

Advertising

Mürzzuschlag weather history for previous 24 hours

 ConditionsComfort  
Time TempWeatherWind HumidityBarometerVisibility
1:00 AM
Oct 25
41 °FQuite cool.2 mph86%30.22 "HgN/A
12:00 AM41 °FFog.1 mph86%30.22 "HgN/A
11:00 PM
Oct 24
42 °FFog.1 mph83%30.22 "Hg6 mi
10:00 PM43 °FQuite cool.1 mph80%30.19 "HgN/A
9:00 PM45 °FQuite cool.6 mph78%30.15 "HgN/A
8:00 PM47 °FOvercast.6 mph77%30.13 "Hg6 mi
7:00 PM48 °FOvercast.7 mph74%30.12 "Hg6 mi
6:00 PM49 °FCool.5 mph72%30.10 "HgN/A
5:00 PM51 °FOvercast.6 mph68%30.08 "Hg5 mi
4:00 PM51 °FCool.6 mph70%30.08 "HgN/A
3:00 PM50 °FCool.7 mph70%30.08 "HgN/A
2:00 PM51 °FOvercast.7 mph68%30.09 "Hg5 mi
1:00 PM51 °FCool.6 mph70%30.09 "HgN/A
12:00 PM49 °FCool.7 mph72%30.10 "HgN/A
11:00 AM48 °FOvercast.6 mph74%30.09 "Hg9 mi
10:00 AM47 °FCool.8 mph76%30.08 "HgN/A
9:00 AM46 °FCool.10 mph76%30.08 "HgN/A
8:00 AM46 °FOvercast.9 mph77%30.04 "Hg7 mi
7:00 AM47 °FOvercast.9 mph78%30.02 "Hg6 mi
6:00 AM47 °FOvercast.6 mph78%30.02 "Hg6 mi
5:00 AM47 °FOvercast.9 mph76%30.03 "Hg6 mi
4:00 AM48 °FOvercast.9 mph76%30.01 "Hg6 mi
3:00 AM48 °FCool.7 mph77%30.01 "HgN/A
2:00 AM48 °FOvercast.9 mph78%29.98 "Hg6 mi
Weather by CustomWeather, © 2014

See weather overviewHow to use our weather pages